FW8630 Weather Reports


Display with metric or nautical units.
time (UTC)temp
F
wind
direction
speed
MPH
gust
MPH
rain 1hr
in
rain 24hr
in
rain mn
in
humidity
%
barometer
mb
20260508214511 41 40 4.0 6.0 0.00 0.00 0.00 84 1027.8
20260508213010 41 40 2.0 7.0 0.00 0.00 0.00 83 1027.7
20260508211508 41 52 3.0 5.0 0.00 0.00 0.00 83 1027.7
20260508210009 42 51 2.0 5.0 0.00 0.00 0.00 82 1027.7
20260508204508 42 61 2.0 5.0 0.00 0.00 0.00 81 1027.7
20260508203006 43 63 1.0 5.0 0.00 0.00 0.00 80 1027.5
20260508201506 43 53 2.0 5.0 0.00 0.00 0.00 79 1027.4
20260508200004 44 54 2.0 4.0 0.00 0.00 0.00 78 1027.4
20260508194504 44 28 3.0 5.0 0.00 0.00 0.00 78 1027.2
20260508193004 45 47 2.0 5.0 0.00 0.00 0.00 76 1027.3
20260508191505 46 29 4.0 10.0 0.00 0.00 0.00 75 1027.3
20260508190003 46 22 4.0 9.0 0.00 0.00 0.00 74 1027.2
20260508184504 47 58 5.0 13.0 0.00 0.00 0.00 74 1027.1
20260508183100 47 39 6.0 11.0 0.00 0.00 0.00 72 1027.0
20260508181610 48 32 3.0 9.0 0.00 0.00 0.00 70 1026.9
20260508180108 49 33 6.0 13.0 0.00 0.00 0.00 69 1026.7
20260508174619 50 32 5.0 11.0 0.00 0.00 0.00 66 1026.6
20260508173100 50 38 6.0 11.0 0.00 0.00 0.00 63 1026.4
20260508171558 51 55 5.0 13.0 0.00 0.00 0.00 63 1026.5
20260508170059 51 40 6.0 13.0 0.00 0.00 0.00 61 1026.6
20260508164556 52 64 6.0 12.0 0.00 0.00 0.00 62 1026.5
20260508163056 52 71 6.0 12.0 0.00 0.00 0.00 61 1026.5
20260508161556 53 78 5.0 15.0 0.00 0.00 0.00 62 1026.4
20260508160058 53 44 7.0 14.0 0.00 0.00 0.00 60 1026.6
20260508154554 54 80 5.0 13.0 0.00 0.00 0.00 59 1026.7
20260508153057 56 55 8.0 15.0 0.00 0.00 0.00 54 1026.7
20260508151552 56 51 4.0 12.0 0.00 0.00 0.00 54 1026.7
20260508150054 57 31 9.0 16.0 0.00 0.00 0.00 52 1026.7
20260508144554 58 360 10.0 21.0 0.00 0.00 0.00 50 1026.8
20260508143056 57 49 8.0 16.0 0.00 0.00 0.00 49 1026.9
20260508141557 57 41 10.0 16.0 0.00 0.00 0.00 51 1027.0
20260508140049 57 92 9.0 17.0 0.00 0.00 0.00 48 1027.0
20260508134558 57 19 9.0 17.0 0.00 0.00 0.00 49 1027.1
20260508133048 57 26 11.0 19.0 0.00 0.00 0.00 48 1027.1
20260508131547 57 9 10.0 16.0 0.00 0.00 0.00 48 1027.2
20260508130046 56 15 7.0 18.0 0.00 0.00 0.00 51 1027.2
20260508124546 57 351 5.0 18.0 0.00 0.00 0.00 51 1027.2
20260508123056 57 11 9.0 18.0 0.00 0.00 0.00 47 1027.3
20260508121545 57 73 8.0 17.0 0.00 0.00 0.00 49 1027.3
20260508120046 57 34 9.0 19.0 0.00 0.00 0.00 48 1027.4
20260508114549 57 63 8.0 21.0 0.00 0.00 0.00 49 1027.3
20260508113054 57 87 11.0 22.0 0.00 0.00 0.00 48 1027.3
20260508111544 57 10 11.0 21.0 0.00 0.00 0.00 51 1027.3
20260508110040 57 39 9.0 17.0 0.00 0.00 0.00 51 1027.4
20260508104541 56 66 9.0 17.0 0.00 0.00 0.00 50 1027.3
20260508103040 56 17 6.0 16.0 0.00 0.00 0.00 52 1027.2
20260508101536 57 94 10.0 20.0 0.00 0.00 0.00 52 1027.3
20260508100035 56 84 9.0 17.0 0.00 0.00 0.00 52 1027.3
20260508094542 56 45 8.0 18.0 0.00 0.00 0.00 53 1027.3
20260508093034 56 30 7.0 18.0 0.00 0.00 0.00 53 1027.3
20260508091535 56 103 9.0 19.0 0.00 0.00 0.00 53 1027.2
20260508090028 55 22 7.0 19.0 0.00 0.00 0.00 54 1027.3
20260508084526 55 360 7.0 17.0 0.00 0.00 0.00 55 1027.3
20260508083024 55 63 6.0 15.0 0.00 0.00 0.00 54 1027.3
20260508081553 55 58 10.0 17.0 0.00 0.00 0.00 55 1027.4
20260508080020 55 53 4.0 15.0 0.00 0.00 0.00 58 1027.2
20260508074517 55 13 7.0 14.0 0.00 0.00 0.00 58 1027.3
20260508073016 54 61 8.0 15.0 0.00 0.00 0.00 59 1027.3
20260508071531 54 91 8.0 16.0 0.00 0.00 0.00 60 1027.1
20260508070011 54 61 5.0 15.0 0.00 0.00 0.00 64 1026.8
20260508064511 54 18 9.0 15.0 0.00 0.00 0.00 66 1026.8
20260508063009 53 82 6.0 11.0 0.00 0.00 0.00 70 1026.7
20260508061559 51 34 6.0 13.0 0.00 0.00 0.00 72 1026.6
20260508060057 49 75 4.0 13.0 0.00 0.00 0.00 76 1026.5
20260508054550 49 78 5.0 10.0 0.00 0.00 0.00 77 1026.5
20260508053045 47 85 3.0 8.0 0.00 0.00 0.00 81 1026.5
20260508051541 44 68 3.0 6.0 0.00 0.00 0.00 83 1026.4
20260508050037 42 46 4.0 9.0 0.00 0.00 0.00 86 1026.1
20260508044532 39 43 3.0 5.0 0.00 0.00 0.00 88 1026.1
20260508043027 36 83 1.0 4.0 0.00 0.00 0.00 88 1026.0
20260508041523 34 89 2.0 4.0 0.00 0.00 0.00 88 1025.8
20260508033017 31 42 3.0 5.0 0.00 0.00 0.00 91 1025.6
20260508031511 30 44 1.0 4.0 0.00 0.00 0.00 92 1025.5
20260508021557 30 65 2.0 4.0 0.00 0.00 0.00 92 1024.8
20260508020100 30 66 0.0 3.0 0.00 0.00 0.00 93 1024.6
20260508014553 29 72 2.0 4.0 0.00 0.00 0.00 94 1024.6
20260508013049 29 69 0.0 0.0 0.00 0.00 0.00 96 1024.4
20260508011546 29 69 0.0 0.0 0.00 0.00 0.00 96 1024.5
20260508010044 30 69 0.0 0.0 0.00 0.00 0.00 95 1024.3
20260508004543 30 69 0.0 0.0 0.00 0.00 0.00 96 1024.3
20260508003041 30 69 0.0 0.0 0.00 0.00 0.00 97 1024.2
20260508001539 30 69 0.0 0.0 0.00 0.00 0.00 97 1024.1
20260508000040 31 69 0.0 0.0 0.00 0.00 0.00 97 1024.1
20260507234535 31 69 0.0 0.0 0.00 0.00 0.00 97 1024.0
20260507233040 32 69 0.0 0.0 0.00 0.00 0.00 96 1023.8
20260507231535 33 69 0.0 0.0 0.00 0.00 0.00 97 1023.7
20260507230026 33 69 0.0 0.0 0.00 0.00 0.00 96 1023.5
20260507224526 34 69 0.0 0.0 0.00 0.00 0.00 95 1023.2
20260507223021 34 69 0.0 0.0 0.00 0.00 0.00 95 1023.2
20260507221521 35 69 0.0 0.0 0.00 0.00 0.00 94 1023.1
20260507220019 35 69 0.0 0.0 0.00 0.00 0.00 93 1023.0